Time,TemperatureF,DewpointF,PressureIn,WindDirection,WindDirectionDegrees,WindSpeedMPH,WindSpeedGustMPH,Humidity,HourlyPrecipIn,Conditions,Clouds,dailyrainin,SolarRadiationWatts/m^2,SoftwareType,DateUTC
2013-02-14 00:02:00,22.0,20.0,-100.00,SSE,148,2.0,3.0,93,0.00,,,0.00,0.000000,,2013-02-14 05:02:00,
2013-02-14 00:22:00,23.0,21.0,-100.00,NNW,341,3.0,5.0,93,0.00,,,0.00,0.000000,,2013-02-14 05:22:00,
2013-02-14 00:32:00,23.0,21.0,-100.00,NNW,341,3.0,5.0,93,0.00,,,0.00,0.000000,,2013-02-14 05:32:00,
2013-02-14 00:42:00,23.0,21.0,-100.00,NNW,341,3.0,5.0,93,0.00,,,0.00,0.000000,,2013-02-14 05:42:00,
2013-02-14 00:52:00,23.0,21.0,-100.00,NNW,341,3.0,5.0,93,0.00,,,0.00,0.000000,,2013-02-14 05:52:00,
2013-02-14 01:02:00,23.0,21.0,-100.00,NNW,341,3.0,5.0,93,0.00,,,0.00,0.000000,,2013-02-14 06:02:00,
2013-02-14 01:22:00,22.0,20.0,-100.00,ESE,118,0.0,5.0,93,0.00,,,0.00,0.000000,,2013-02-14 06:22:00,
2013-02-14 01:32:00,22.0,20.0,-100.00,ESE,118,0.0,5.0,93,0.00,,,0.00,0.000000,,2013-02-14 06:32:00,
2013-02-14 01:42:00,22.0,20.0,-100.00,ESE,118,0.0,5.0,93,0.00,,,0.00,0.000000,,2013-02-14 06:42:00,
2013-02-14 01:52:00,22.0,20.0,-100.00,ESE,118,0.0,5.0,93,0.00,,,0.00,0.000000,,2013-02-14 06:52:00,
2013-02-14 02:01:00,22.0,20.0,-100.00,ESE,118,0.0,5.0,93,0.00,,,0.00,0.000000,,2013-02-14 07:01:00,
2013-02-14 02:32:00,23.0,21.0,-100.00,North,8,0.0,3.0,93,0.00,,,0.00,0.000000,,2013-02-14 07:32:00,
2013-02-14 02:42:00,23.0,21.0,-100.00,North,8,0.0,3.0,93,0.00,,,0.00,0.000000,,2013-02-14 07:42:00,
2013-02-14 02:52:00,23.0,21.0,-100.00,North,8,0.0,3.0,93,0.00,,,0.00,0.000000,,2013-02-14 07:52:00,
2013-02-14 03:01:00,23.0,21.0,-100.00,North,8,0.0,3.0,93,0.00,,,0.00,0.000000,,2013-02-14 08:01:00,
2013-02-14 03:32:00,24.0,22.0,-100.00,NE,49,0.0,1.0,93,0.00,,,0.00,0.000000,,2013-02-14 08:32:00,
2013-02-14 03:43:00,24.0,22.0,-100.00,NE,49,0.0,1.0,93,0.00,,,0.00,0.000000,,2013-02-14 08:43:00,
2013-02-14 03:52:00,24.0,22.0,-100.00,NE,49,0.0,1.0,93,0.00,,,0.00,0.000000,,2013-02-14 08:52:00,
2013-02-14 04:01:00,24.0,22.0,-100.00,NE,49,0.0,1.0,93,0.00,,,0.00,0.000000,,2013-02-14 09:01:00,
2013-02-14 04:32:00,24.0,22.0,-100.00,ESE,110,0.0,0.0,93,0.00,,,0.00,0.000000,,2013-02-14 09:32:00,
2013-02-14 04:42:00,24.0,22.0,-100.00,ESE,110,0.0,0.0,93,0.00,,,0.00,0.000000,,2013-02-14 09:42:00,
2013-02-14 04:52:00,24.0,22.0,-100.00,ESE,110,0.0,0.0,93,0.00,,,0.00,0.000000,,2013-02-14 09:52:00,
2013-02-14 05:02:00,24.0,22.0,-100.00,ESE,110,0.0,0.0,93,0.00,,,0.00,0.000000,,2013-02-14 10:02:00,
2013-02-14 05:22:00,25.0,23.0,-100.00,SSE,165,0.0,0.0,93,0.00,,,0.00,0.000000,,2013-02-14 10:22:00,
2013-02-14 05:32:00,25.0,23.0,-100.00,SSE,165,0.0,0.0,93,0.00,,,0.00,0.000000,,2013-02-14 10:32:00,
2013-02-14 05:42:00,25.0,23.0,-100.00,SSE,165,0.0,0.0,93,0.00,,,0.00,0.000000,,2013-02-14 10:42:00,
2013-02-14 05:52:00,25.0,23.0,-100.00,SSE,165,0.0,0.0,93,0.00,,,0.00,0.000000,,2013-02-14 10:52:00,
2013-02-14 06:02:00,25.0,23.0,-100.00,SSE,165,0.0,0.0,93,0.00,,,0.00,0.000000,,2013-02-14 11:02:00,
2013-02-14 06:32:00,26.0,25.0,-100.00,NE,36,0.0,0.0,94,0.00,,,0.00,0.000000,,2013-02-14 11:32:00,
2013-02-14 06:42:00,26.0,25.0,-100.00,NE,36,0.0,0.0,94,0.00,,,0.00,0.000000,,2013-02-14 11:42:00,
2013-02-14 06:52:00,26.0,25.0,-100.00,NE,36,0.0,0.0,94,0.00,,,0.00,0.000000,,2013-02-14 11:52:00,
2013-02-14 07:02:00,26.0,25.0,-100.00,NE,36,0.0,0.0,94,0.00,,,0.00,0.000000,,2013-02-14 12:02:00,
2013-02-14 07:32:00,28.0,27.0,-100.00,NNE,24,4.0,6.0,94,0.00,,,0.00,0.000000,,2013-02-14 12:32:00,
2013-02-14 07:42:00,28.0,27.0,-100.00,NNE,24,4.0,6.0,94,0.00,,,0.00,0.000000,,2013-02-14 12:42:00,
2013-02-14 07:53:00,28.0,27.0,-100.00,NNE,24,4.0,6.0,94,0.00,,,0.00,0.000000,,2013-02-14 12:53:00,
2013-02-14 08:01:00,28.0,27.0,-100.00,NNE,24,4.0,6.0,94,0.00,,,0.00,0.000000,,2013-02-14 13:01:00,
2013-02-14 08:32:00,28.0,27.0,-100.00,NNE,16,4.0,8.0,94,0.00,,,0.00,0.000000,,2013-02-14 13:32:00,
2013-02-14 08:42:00,28.0,27.0,-100.00,NNE,16,4.0,8.0,94,0.00,,,0.00,0.000000,,2013-02-14 13:42:00,
2013-02-14 08:52:00,28.0,27.0,-100.00,NNE,16,4.0,8.0,94,0.00,,,0.00,0.000000,,2013-02-14 13:52:00,
2013-02-14 09:01:00,28.0,27.0,-100.00,NNE,16,4.0,8.0,94,0.00,,,0.00,0.000000,,2013-02-14 14:01:00,
2013-02-14 09:21:00,28.0,27.0,-100.00,North,10,4.0,8.0,94,0.00,,,-99.99,6.000000,,2013-02-14 14:21:00,
2013-02-14 09:32:00,28.0,27.0,-100.00,North,10,4.0,8.0,94,0.00,,,-99.99,6.000000,,2013-02-14 14:32:00,
2013-02-14 09:42:00,28.0,27.0,-100.00,North,10,4.0,8.0,94,0.00,,,-99.99,6.000000,,2013-02-14 14:42:00,
2013-02-14 09:52:00,28.0,27.0,-100.00,North,10,4.0,8.0,94,0.00,,,-99.99,6.000000,,2013-02-14 14:52:00,
2013-02-14 10:01:00,28.0,27.0,-100.00,North,10,4.0,8.0,94,0.00,,,-99.99,6.000000,,2013-02-14 15:01:00,
2013-02-14 10:32:00,29.0,27.0,-100.00,North,10,4.0,9.0,92,0.00,,,0.00,24.000000,,2013-02-14 15:32:00,
2013-02-14 10:42:00,29.0,27.0,-100.00,North,10,4.0,9.0,92,0.00,,,0.00,24.000000,,2013-02-14 15:42:00,
2013-02-14 10:52:00,29.0,27.0,-100.00,North,10,4.0,9.0,92,0.00,,,0.00,24.000000,,2013-02-14 15:52:00,
2013-02-14 11:01:00,29.0,27.0,-100.00,North,10,4.0,9.0,92,0.00,,,0.00,24.000000,,2013-02-14 16:01:00,
2013-02-14 11:22:00,31.0,28.0,-100.00,North,3,4.0,7.0,90,0.00,,,0.00,39.000000,,2013-02-14 16:22:00,
2013-02-14 11:32:00,31.0,28.0,-100.00,North,3,4.0,7.0,90,0.00,,,0.00,39.000000,,2013-02-14 16:32:00,
2013-02-14 11:42:00,31.0,28.0,-100.00,North,3,4.0,7.0,90,0.00,,,0.00,39.000000,,2013-02-14 16:42:00,
2013-02-14 11:52:00,31.0,28.0,-100.00,North,3,4.0,7.0,90,0.00,,,0.00,39.000000,,2013-02-14 16:52:00,
2013-02-14 12:01:00,31.0,28.0,-100.00,North,3,4.0,7.0,90,0.00,,,0.00,39.000000,,2013-02-14 17:01:00,
2013-02-14 12:32:00,33.0,30.0,-100.00,North,10,8.0,14.0,88,0.00,,,0.00,105.000000,,2013-02-14 17:32:00,
2013-02-14 12:42:00,33.0,30.0,-100.00,North,10,8.0,14.0,88,0.00,,,0.00,105.000000,,2013-02-14 17:42:00,
2013-02-14 12:52:00,33.0,30.0,-100.00,North,10,8.0,14.0,88,0.00,,,0.00,105.000000,,2013-02-14 17:52:00,
2013-02-14 13:01:00,33.0,30.0,-100.00,North,10,8.0,14.0,88,0.00,,,0.00,105.000000,,2013-02-14 18:01:00,
2013-02-14 13:32:00,35.0,29.0,-100.00,NNE,13,8.0,16.0,79,0.08,,,0.08,302.000000,,2013-02-14 18:32:00,
2013-02-14 13:42:00,35.0,29.0,-100.00,NNE,13,8.0,16.0,79,0.08,,,0.08,302.000000,,2013-02-14 18:42:00,
2013-02-14 13:52:00,35.0,29.0,-100.00,NNE,13,8.0,16.0,79,0.08,,,0.08,302.000000,,2013-02-14 18:52:00,
2013-02-14 14:02:00,35.0,29.0,-100.00,NNE,13,8.0,16.0,79,0.08,,,0.08,302.000000,,2013-02-14 19:02:00,
2013-02-14 14:32:00,33.0,27.0,-100.00,North,6,12.0,21.0,79,0.04,,,0.12,276.000000,,2013-02-14 19:32:00,
2013-02-14 14:42:00,33.0,27.0,-100.00,North,6,12.0,21.0,79,0.04,,,0.12,276.000000,,2013-02-14 19:42:00,
2013-02-14 14:52:00,33.0,27.0,-100.00,North,6,12.0,21.0,79,0.04,,,0.12,276.000000,,2013-02-14 19:52:00,
2013-02-14 15:01:00,33.0,27.0,-100.00,North,6,12.0,21.0,79,0.04,,,0.12,276.000000,,2013-02-14 20:01:00,
2013-02-14 15:22:00,31.0,24.0,-100.00,NNE,12,12.0,25.0,74,0.00,,,0.12,218.000000,,2013-02-14 20:22:00,
2013-02-14 15:32:00,31.0,24.0,-100.00,NNE,12,12.0,25.0,74,0.00,,,0.12,218.000000,,2013-02-14 20:32:00,
2013-02-14 15:42:00,31.0,24.0,-100.00,NNE,12,12.0,25.0,74,0.00,,,0.12,218.000000,,2013-02-14 20:42:00,
2013-02-14 15:52:00,31.0,24.0,-100.00,NNE,12,12.0,25.0,74,0.00,,,0.12,218.000000,,2013-02-14 20:52:00,
2013-02-14 16:02:00,31.0,24.0,-100.00,NNE,12,12.0,25.0,74,0.00,,,0.12,218.000000,,2013-02-14 21:02:00,
2013-02-14 16:32:00,28.0,21.0,-100.00,North,355,10.0,23.0,75,0.00,,,0.12,160.000000,,2013-02-14 21:32:00,
2013-02-14 16:42:00,28.0,21.0,-100.00,North,355,10.0,23.0,75,0.00,,,0.12,160.000000,,2013-02-14 21:42:00,
2013-02-14 16:52:00,28.0,21.0,-100.00,North,355,10.0,23.0,75,0.00,,,0.12,160.000000,,2013-02-14 21:52:00,
2013-02-14 17:02:00,28.0,21.0,-100.00,North,355,10.0,23.0,75,0.00,,,0.12,160.000000,,2013-02-14 22:02:00,
2013-02-14 17:21:00,25.0,18.0,-100.00,North,1,11.0,26.0,74,0.00,,,0.12,112.000000,,2013-02-14 22:21:00,
2013-02-14 17:32:00,25.0,18.0,-100.00,North,1,11.0,26.0,74,0.00,,,0.12,112.000000,,2013-02-14 22:32:00,
2013-02-14 17:42:00,25.0,18.0,-100.00,North,1,11.0,26.0,74,0.00,,,0.12,112.000000,,2013-02-14 22:42:00,
2013-02-14 17:52:00,25.0,18.0,-100.00,North,1,11.0,26.0,74,0.00,,,0.12,112.000000,,2013-02-14 22:52:00,
2013-02-14 18:01:00,25.0,18.0,-100.00,North,1,11.0,26.0,74,0.00,,,0.12,112.000000,,2013-02-14 23:01:00,
2013-02-14 18:32:00,23.0,14.0,-100.00,North,352,11.0,23.0,69,0.00,,,0.12,31.000000,,2013-02-14 23:32:00,
2013-02-14 18:42:00,23.0,14.0,-100.00,North,352,11.0,23.0,69,0.00,,,0.12,31.000000,,2013-02-14 23:42:00,
2013-02-14 18:52:00,23.0,14.0,-100.00,North,352,11.0,23.0,69,0.00,,,0.12,31.000000,,2013-02-14 23:52:00,
2013-02-14 19:01:00,23.0,14.0,-100.00,North,352,11.0,23.0,69,0.00,,,0.12,31.000000,,2013-02-15 00:01:00,
2013-02-14 19:32:00,22.0,14.0,-100.00,NNW,339,9.0,21.0,70,0.00,,,0.12,1.000000,,2013-02-15 00:32:00,
2013-02-14 19:42:00,22.0,14.0,-100.00,NNW,339,9.0,21.0,70,0.00,,,0.12,1.000000,,2013-02-15 00:42:00,
2013-02-14 19:52:00,22.0,14.0,-100.00,NNW,339,9.0,21.0,70,0.00,,,0.12,1.000000,,2013-02-15 00:52:00,
2013-02-14 20:02:00,22.0,14.0,-100.00,NNW,339,9.0,21.0,70,0.00,,,0.12,1.000000,,2013-02-15 01:02:00,
2013-02-14 20:32:00,21.0,11.0,-100.00,NNW,332,9.0,18.0,66,0.00,,,0.12,0.000000,,2013-02-15 01:32:00,
2013-02-14 20:42:00,21.0,11.0,-100.00,NNW,332,9.0,18.0,66,0.00,,,0.12,0.000000,,2013-02-15 01:42:00,
2013-02-14 20:52:00,21.0,11.0,-100.00,NNW,332,9.0,18.0,66,0.00,,,0.12,0.000000,,2013-02-15 01:52:00,
2013-02-14 21:01:00,21.0,11.0,-100.00,NNW,332,9.0,18.0,66,0.00,,,0.12,0.000000,,2013-02-15 02:01:00,
2013-02-14 21:21:00,20.0,9.0,-100.00,NNW,328,9.0,19.0,63,0.00,,,0.12,0.000000,,2013-02-15 02:21:00,
2013-02-14 21:32:00,20.0,9.0,-100.00,NNW,328,9.0,19.0,63,0.00,,,0.12,0.000000,,2013-02-15 02:32:00,
2013-02-14 21:42:00,20.0,9.0,-100.00,NNW,328,9.0,19.0,63,0.00,,,0.12,0.000000,,2013-02-15 02:42:00,
2013-02-14 21:52:00,20.0,9.0,-100.00,NNW,328,9.0,19.0,63,0.00,,,0.12,0.000000,,2013-02-15 02:52:00,
2013-02-14 22:02:00,20.0,9.0,-100.00,NNW,328,9.0,19.0,63,0.00,,,0.12,0.000000,,2013-02-15 03:02:00,
2013-02-14 22:32:00,19.0,12.0,-100.00,NW,325,7.0,16.0,73,0.00,,,0.12,0.000000,,2013-02-15 03:32:00,
2013-02-14 22:42:00,19.0,12.0,-100.00,NW,325,7.0,16.0,73,0.00,,,0.12,0.000000,,2013-02-15 03:42:00,
2013-02-14 22:52:00,19.0,12.0,-100.00,NW,325,7.0,16.0,73,0.00,,,0.12,0.000000,,2013-02-15 03:52:00,
2013-02-14 23:01:00,19.0,12.0,-100.00,NW,325,7.0,16.0,73,0.00,,,0.12,0.000000,,2013-02-15 04:01:00,
2013-02-14 23:22:00,19.0,11.0,-100.00,NNW,327,6.0,14.0,72,0.00,,,0.12,0.000000,,2013-02-15 04:22:00,
2013-02-14 23:32:00,19.0,11.0,-100.00,NNW,327,6.0,14.0,72,0.00,,,0.12,0.000000,,2013-02-15 04:32:00,
2013-02-14 23:42:00,19.0,11.0,-100.00,NNW,327,6.0,14.0,72,0.00,,,0.12,0.000000,,2013-02-15 04:42:00,
2013-02-14 23:52:00,19.0,11.0,-100.00,NNW,327,6.0,14.0,72,0.00,,,0.12,0.000000,,2013-02-15 04:52:00,